SCP
0 0 0 0 0 0 0 0 0 0 0 0 0 0 0 0 0 0 0 0 0 0 0 0 0 0 0 0 0 0 0 0 0 0 0 0 0 0 0 0 0 0 0 0 0
0 0 0 0 0 0 0 0 0 0 0 0 0 0 0 0 0 0 0 0 0 0 0 0 0 0 0 0 0 0 0 0 0 0 0 0 0 0 0 0 0 0 0 0 0
0 0 0 0 0 0 0 0 0 0 0 0 0 0 0 0 0 0 0 0 -0 0 0 0 0 0 0 0 0 0 0 0 0 0 0 0 0 0 0 0 0 0 0 0 0
0 0 0 0 0 0 0 0 0 0 0 0 0 0 0 0 0 0 0 0 0 0 0 0 0 0 0 0 0 0 0 0 0 0 0 0 0 0 0 0 0 0 0 0 0
0 0 0 0 0 0 0 0 0 0 0 0 0 0 0 0 0 0 0 0 0 0 0 0 0 0 0 0 0 0 0 0 0 0 0 0 0 0 0 0 0 0 0 0 0
0 0 0 0 0 0 0 0 0 0 0 0 0 0 0 0 0 0 0 0 0 0 0 0 0 0 0 0 0 0 0 0 0 0 0 0 0 0 0 0 0 0 0 0 0
0 0 0 0 0 0 0 0 0 0 0 0 0 0 0 0 0 0 0 0 0 0 0 0 0 0 0 0 0 0 0 0 0 0 0 0 0 0 0 0 0 0 0 0 0
0 0 0 0 0 0 0 0 0 -0 -0 0 0 0 0 0 0 0 0 0 0 0 0 0 0 0 0 0 0 0 0 0 0 0 0 0 0 0 0 0 0 0 0 0 0
0 0 0 0 0 0 0 0 0 0 -0 -0 0 0 0 0 0 0 0 0 0 0 0 0 0 0 0 0 0 0 0 0 0 0 0 0 0 0 0 0 0 0 0 0 0
0 0 0 0 0 0 0 0 -0 0 0 0 0 0 0 0 0 0 0 0 0 0 0 0 0 0 0 0 0 0 0 0 0 0 0 0 0 0 0 0 0 0 0 0 0
0 0 0 0 0 0 0 0 0 0 0 0 0 0 0 0 0 0 0 0 0 0 0 0 0 0 0 0 0 0 0 0 0 0 0 0 0 0 0 0 0 0 0 0 0
0 0 0 0 0 0 0 0 0 0 0 0 0 0 -0 0 0 0 0 0 0 0 0 0 0 0 0 0 0 0 0 0 0 0 0 0 0 0 0 0 0 0 0 0 0
0 0 0 0 0 0 0 0 0 0 0 0 0 0 0 0 0 0 0 0 0 0 0 0 0 0 0 0 0 0 0 0 0 0 0 0 0 0 0 0 0 0 0 0 0
0 0 0 0 0 0 0 0 0 0 0 0 0 0 -0 0 -0 0 0 0 0 0 0 0 0 0 0 0 0 0 0 0 0 0 0 0 0 0 0 0 0 0 0 0 0
0 0 0 0 0 0 0 0 0 0 0 0 0 0 0 0 0 0 0 0 -0 0 0 0 0 0 0 0 0 0 0 0 0 0 0 0 0 0 0 0 0 0 0 0 0
0 0 0 0 0 0 0 0 0 0 0 0 0 -0 -0 0 0 0 0 0 0 0 0 0 0 0 0 0 0 0 0 0 0 0 0 0 0 0 0 0 0 0 0 0 0
0 0 0 0 0 0 0 0 0 0 0 0 -0 -0 -0 -0 0 0 0 0 -0 0 0 0 0 0 0 0 0 0 0 0 0 0 0 0 0 0 0 0 0 0 0 0 0
0 -0 0 0 0 0 0 0 0 0 0 -0 -0 -0 0 -0 0 0 -0 0 -0 -0 0 0 0 0 0 0 0 0 0 0 0 0 0 0 0 0 0 0 0 0 0 0 0
0 0 0 0 0 0 0 0 0 0 -0 0 -0 0 0 -0 -0 0 0 0 -0 0 0 0 0 0 0 0 0 0 0 0 0 0 0 0 0 0 0 0 0 0 0 0 0
0 0 0 0 0 0 0 0 0 0 0 -0 0 -0 0 -0 -0 -0 0 0 -0 -0 -0 0 0 0 0 0 0 0 0 0 0 0 0 0 0 0 0 0 0 0 0 0 0
0 0 0 0 0 0 0 0 0 0 -0 0 0 -0 -0 -0 -0 0 -0 0 0 -0 0 0 0 0 0 0 0 0 0 0 0 0 0 0 0 0 0 0 0 0 0 0 0
0 0 0 0 0 0 0 0 0 0 0 -0 0 0 -0 -0 0 0 -0 0 0 0 0 0 0 0 0 0 0 0 0 0 0 0 0 0 0 0 0 0 0 0 0 0 0
0 0 0 0 0 0 0 0 0 0 -0 -0 -0 -0 0 -0 -0 0 0 0 0 0 0 0 0 0 0 0 0 0 0 0 0 0 0 0 0 0 0 0 0 0 0 0 0
0 0 0 0 0 0 0 0 0 0 0 0 -0 -0 -0 0 0 -0 -0 0 0 0 0 0 0 0 0 0 0 0 0 0 0 0 0 0 0 0 0 0 0 0 0 0 0
0 0 0 0 0 0 0 0 0 0 0 -0 -0 -0 -0 0 0 0 0 -0 0 0 0 0 0 0 0 0 0 0 0 0 0 0 0 0 0 0 0 0 0 0 0 0 0
0 0 0 0 0 0 0 0 0 0 0 0 0 -0 0 0 0 0 -0 -0 0 0 0 0 0 0 0 0 0 0 0 0 0 0 0 0 0 -0 0 0 0 0 0 0 0
0 0 0 0 0 0 0 0 0 0 0 0 -0 -0 0 0 0 0 0 -0 0 0 0 0 0 0 0 0 0 0 0 0 0 0 0 0 0 0 0 0 0 -0 -0 0 0
Wind_Speed_500mb
35 32 30 32 32 34 39 39 35 35 34 37 37 42 40 35 41 45 54 39 27 19 21 25 41 43 36 35 35 26 5 11 10 13 6 3 3 10 16 39 10 22 29 34 71
42 39 37 36 37 38 37 39 42 44 46 39 34 40 39 42 44 64 49 43 44 34 29 41 49 48 30 19 29 14 13 16 9 8 2 12 9 15 14 20 9 21 20 65 80
36 38 41 39 40 40 43 45 45 46 44 43 44 39 38 31 41 50 10 2 19 39 33 37 40 45 27 18 20 16 18 20 14 16 14 9 5 6 26 2 22 56 72 87 83
37 40 43 41 40 45 48 46 46 46 48 45 41 38 37 24 19 12 24 22 4 30 42 40 41 25 14 18 33 9 38 19 48 30 13 9 19 5 9 13 37 58 72 87 85
40 40 46 46 48 48 49 50 51 48 46 44 40 35 37 32 46 23 33 17 4 28 56 50 43 36 27 16 27 20 6 53 42 44 30 28 9 7 9 22 40 64 83 81 85
44 45 48 50 52 54 54 52 51 51 51 46 43 36 41 54 57 63 58 47 27 33 55 60 38 52 30 15 29 23 42 30 27 34 20 16 8 3 4 32 57 69 86 82 81
48 49 49 51 53 53 55 56 56 58 56 51 43 41 54 67 42 30 29 50 38 45 56 70 71 46 24 16 31 44 18 28 38 17 13 18 14 12 6 46 60 70 84 87 80
47 46 52 56 54 55 57 56 59 61 59 53 46 44 54 32 28 55 71 62 42 43 53 47 63 47 28 12 17 18 14 17 20 19 17 25 11 13 27 39 50 64 74 78 86
49 51 53 58 54 56 56 59 62 57 49 47 44 43 33 31 32 33 53 64 50 42 48 50 44 53 26 15 8 22 17 35 13 22 13 20 8 18 26 37 45 55 68 78 82
50 52 52 56 61 59 59 55 45 24 18 11 16 15 31 30 12 12 8 29 53 46 34 39 35 18 13 20 27 35 26 15 23 15 21 15 13 7 29 38 50 57 59 70 80
48 54 54 57 61 59 43 56 30 13 39 20 32 28 44 24 16 41 36 27 40 34 28 45 26 36 56 44 20 23 15 16 17 12 15 30 20 20 21 20 37 54 57 62 78
49 53 54 55 57 40 38 32 31 35 28 63 60 60 75 62 45 77 35 17 27 42 29 18 43 51 34 28 36 17 24 18 5 9 14 12 28 23 27 15 29 51 59 68 75
49 50 54 52 55 23 30 21 36 36 11 40 18 16 21 12 41 60 32 27 14 39 40 39 26 31 33 33 34 40 33 12 14 7 4 10 11 16 17 19 30 45 64 78 85
54 52 53 48 33 38 16 29 41 33 6 13 6 6 4 13 13 46 37 25 7 42 38 27 38 49 40 42 38 31 25 11 14 10 7 3 9 15 31 17 25 40 57 72 80
51 50 44 30 31 30 35 44 35 11 10 9 6 10 23 9 20 4 45 21 16 21 27 23 32 32 37 49 28 9 31 22 10 11 6 4 3 13 8 32 32 29 53 72 83
49 40 29 25 28 30 40 37 14 9 11 12 17 38 24 6 8 7 24 23 12 10 17 10 14 17 16 30 46 17 19 14 11 7 7 15 11 9 12 16 15 35 63 79 87
39 28 15 21 29 38 32 19 9 9 12 19 32 30 34 18 10 12 5 8 10 7 15 13 11 7 12 22 11 12 28 8 11 10 9 18 11 18 11 14 19 21 53 78 88
32 18 10 16 27 30 22 10 12 9 10 27 24 36 9 19 6 10 10 7 7 7 8 19 17 13 14 19 17 27 24 8 14 9 8 11 14 12 25 36 48 41 38 57 75
26 13 9 21 26 18 12 9 11 6 14 24 29 8 8 15 8 10 12 11 10 8 6 15 6 5 8 5 17 12 16 8 11 7 6 8 9 18 14 20 15 27 24 54 75
28 14 12 28 25 19 9 6 6 6 12 12 7 9 9 18 17 18 7 8 14 18 19 9 11 3 6 8 3 21 16 6 4 10 7 5 7 10 9 13 12 14 27 58 77
18 7 18 30 18 7 4 10 11 27 32 6 6 8 10 11 19 11 11 5 8 8 23 3 5 4 9 1 13 7 15 6 12 2 8 6 10 8 10 14 15 17 22 42 71
9 5 24 28 9 4 3 8 23 13 27 8 7 11 8 26 9 8 10 9 17 11 9 3 6 8 4 6 1 7 13 10 8 8 1 5 8 3 12 15 14 14 9 25 67
6 9 18 24 6 8 11 10 8 11 15 9 8 6 9 9 8 8 6 3 16 8 6 10 4 8 6 7 9 11 7 10 9 7 10 10 7 5 11 14 18 13 7 13 51
5 6 9 10 3 5 9 10 12 23 9 19 11 12 10 7 3 10 15 10 18 13 17 14 7 7 9 9 9 8 7 9 10 7 10 10 6 7 11 13 13 16 8 19 48
9 3 5 6 9 5 2 5 15 16 8 15 9 17 17 9 11 5 4 12 7 18 8 5 5 5 4 10 12 8 9 8 8 8 11 10 11 3 7 4 1 4 4 25 46
6 6 5 10 24 9 8 6 11 19 6 8 12 22 17 6 8 14 16 10 7 8 5 3 1 5 6 7 13 5 9 13 7 7 3 5 17 9 8 8 5 6 10 29 46
9 6 3 7 8 6 5 7 14 16 14 13 24 24 11 13 31 39 29 15 14 8 3 1 4 5 4 8 10 8 18 16 8 7 16 16 25 6 3 7 13 19 22 32 46
Wind_Direction_500mb
323 322 321 321 324 318 304 302 296 298 306 309 305 276 276 287 288 287 278 275 263 228 203 192 197 197 199 204 189 192 188 206 224 191 217 249 232 160 171 140 144 178 162 180 163
322 328 334 327 327 320 311 305 305 298 291 290 303 304 288 279 289 280 293 266 249 223 211 192 201 194 198 210 197 180 211 211 207 252 214 296 214 186 123 137 87 135 146 155 160
340 332 325 322 320 315 309 307 307 305 301 301 292 288 304 289 295 273 208 291 223 200 212 210 205 196 209 194 201 197 213 214 241 289 285 277 306 225 129 169 176 151 152 159 167
332 326 329 322 313 314 315 314 309 305 300 304 294 290 285 288 251 183 169 114 314 220 201 208 207 203 197 206 198 200 218 238 242 269 341 328 328 245 161 188 178 166 164 166 174
327 326 322 321 318 318 315 312 309 307 302 299 294 288 281 257 242 194 220 289 134 197 200 205 213 208 209 192 178 215 197 226 246 257 287 284 277 295 238 158 172 164 167 174 178
328 325 322 320 318 316 313 311 308 303 298 295 290 283 274 258 257 253 244 262 228 223 219 213 216 211 215 224 199 195 220 235 235 245 252 225 234 199 187 157 165 169 170 178 183
326 325 324 322 323 318 313 309 305 297 294 292 290 279 269 253 256 250 238 244 242 228 229 227 219 204 216 219 218 220 197 231 244 219 233 203 264 189 155 174 170 179 179 181 184
327 326 326 324 325 321 316 312 304 300 298 289 285 276 264 262 271 265 254 255 231 223 233 249 225 224 223 233 180 192 200 227 238 184 213 167 240 222 201 178 175 181 182 184 188
324 324 324 324 327 323 321 315 314 312 298 285 270 257 270 271 252 267 248 250 238 231 234 235 217 217 200 206 195 191 206 216 237 188 182 189 221 217 214 187 187 187 187 189 192
328 330 328 328 327 330 325 324 333 329 328 333 239 260 261 253 253 284 304 269 250 241 242 209 200 200 208 200 204 188 194 191 204 196 190 195 205 227 217 187 195 195 195 193 194
329 327 330 328 329 334 335 341 357 342 314 271 263 251 262 238 264 281 285 306 229 238 220 196 204 206 209 205 199 205 171 181 189 200 173 220 211 223 206 192 190 196 197 196 199
327 327 331 328 333 332 333 346 343 319 294 298 279 271 266 264 278 269 260 241 193 223 214 191 212 215 214 198 205 198 206 194 157 156 183 216 229 220 225 201 200 199 200 199 204
330 329 329 329 332 330 344 354 329 335 281 301 292 272 313 279 227 255 203 199 235 220 212 225 227 205 201 201 199 213 204 180 152 136 134 150 256 219 241 219 211 218 215 209 205
327 329 331 331 337 333 358 344 338 334 319 281 293 327 332 313 261 251 207 186 275 212 218 222 249 192 187 215 198 200 194 173 148 118 202 194 245 229 215 215 220 215 217 212 207
324 327 329 340 333 339 336 331 329 341 333 298 300 323 316 204 281 267 188 146 236 219 189 202 210 212 203 204 185 213 185 175 138 139 53 261 122 274 191 218 221 223 218 219 215
324 329 331 339 335 331 324 320 325 48 263 305 324 326 325 277 262 93 159 159 149 298 224 178 171 186 204 178 188 186 110 67 52 81 218 210 162 254 206 197 215 226 222 220 217
337 341 348 344 335 332 330 332 33 111 319 339 322 325 320 323 306 194 292 134 170 213 164 169 162 180 167 181 126 192 141 154 191 194 214 178 181 239 231 226 205 217 223 214 210
347 352 3 328 327 332 333 47 67 259 281 316 318 312 13 0 311 320 166 155 181 184 327 166 196 177 167 198 180 179 167 165 190 181 168 116 224 249 225 232 239 240 261 207 199
352 356 353 341 350 344 342 43 207 264 320 328 322 319 319 354 312 318 185 186 137 170 229 192 188 142 146 127 145 172 196 141 97 25 64 209 273 304 232 250 237 238 211 195 195
341 343 14 340 332 331 65 263 242 286 304 321 307 356 310 333 332 342 9 8 163 170 148 277 107 345 129 114 75 179 134 140 335 127 190 286 292 224 311 302 301 251 211 200 200
334 359 1 346 342 12 116 242 286 299 309 285 271 288 281 315 327 307 352 17 21 175 148 264 56 355 98 153 166 119 182 123 120 17 166 147 253 220 264 277 291 249 224 200 199
339 39 12 4 41 6 326 280 298 297 327 290 232 243 278 326 307 310 348 335 339 342 155 75 96 112 133 189 321 278 164 138 143 220 161 125 279 296 271 269 265 253 196 202 200
40 339 17 24 49 345 294 288 278 316 320 327 289 290 329 303 336 325 315 306 7 342 163 171 41 88 86 347 88 260 145 117 108 107 201 143 243 317 4 10 4 99 147 165 189
26 26 14 23 41 265 321 297 320 317 291 337 280 324 344 321 303 307 327 347 338 355 28 143 139 165 174 188 137 169 121 143 133 134 163 220 177 352 3 15 11 31 56 168 172
33 22 47 306 316 302 241 287 311 343 326 332 324 2 336 322 327 321 346 305 351 5 44 87 150 107 17 170 152 145 144 153 145 155 163 267 194 127 11 206 51 28 53 163 161
69 29 345 281 299 356 343 290 323 330 276 308 330 325 311 271 315 314 340 10 303 1 50 327 293 127 66 95 81 104 169 163 154 174 164 319 292 161 99 116 152 170 149 165 164
42 5 345 334 330 39 259 313 293 326 296 277 313 304 301 333 309 291 280 262 262 297 336 54 120 92 186 95 63 338 210 180 160 182 166 208 234 82 75 220 214 192 185 182 180
Wind_Speed_850mb
35 32 30 32 32 34 39 39 35 35 34 37 37 42 40 35 41 45 54 39 27 19 21 25 41 43 36 35 35 26 5 11 10 13 6 3 3 10 16 39 10 22 29 34 71
42 39 37 36 37 38 37 39 42 44 46 39 34 40 39 42 44 64 49 43 44 34 29 41 49 48 30 19 29 14 13 16 9 8 2 12 9 15 14 20 9 21 20 65 80
36 38 41 39 40 40 43 45 45 46 44 43 44 39 38 31 41 50 10 2 19 39 33 37 40 45 27 18 20 16 18 20 14 16 14 9 5 6 26 2 22 56 72 87 83
37 40 43 41 40 45 48 46 46 46 48 45 41 38 37 24 19 12 24 22 4 30 42 40 41 25 14 18 33 9 38 19 48 30 13 9 19 5 9 13 37 58 72 87 85
40 40 46 46 48 48 49 50 51 48 46 44 40 35 37 32 46 23 33 17 4 28 56 50 43 36 27 16 27 20 6 53 42 44 30 28 9 7 9 22 40 64 83 81 85
44 45 48 50 52 54 54 52 51 51 51 46 43 36 41 54 57 63 58 47 27 33 55 60 38 52 30 15 29 23 42 30 27 34 20 16 8 3 4 32 57 69 86 82 81
48 49 49 51 53 53 55 56 56 58 56 51 43 41 54 67 42 30 29 50 38 45 56 70 71 46 24 16 31 44 18 28 38 17 13 18 14 12 6 46 60 70 84 87 80
47 46 52 56 54 55 57 56 59 61 59 53 46 44 54 32 28 55 71 62 42 43 53 47 63 47 28 12 17 18 14 17 20 19 17 25 11 13 27 39 50 64 74 78 86
49 51 53 58 54 56 56 59 62 57 49 47 44 43 33 31 32 33 53 64 50 42 48 50 44 53 26 15 8 22 17 35 13 22 13 20 8 18 26 37 45 55 68 78 82
50 52 52 56 61 59 59 55 45 24 18 11 16 15 31 30 12 12 8 29 53 46 34 39 35 18 13 20 27 35 26 15 23 15 21 15 13 7 29 38 50 57 59 70 80
48 54 54 57 61 59 43 56 30 13 39 20 32 28 44 24 16 41 36 27 40 34 28 45 26 36 56 44 20 23 15 16 17 12 15 30 20 20 21 20 37 54 57 62 78
49 53 54 55 57 40 38 32 31 35 28 63 60 60 75 62 45 77 35 17 27 42 29 18 43 51 34 28 36 17 24 18 5 9 14 12 28 23 27 15 29 51 59 68 75
49 50 54 52 55 23 30 21 36 36 11 40 18 16 21 12 41 60 32 27 14 39 40 39 26 31 33 33 34 40 33 12 14 7 4 10 11 16 17 19 30 45 64 78 85
54 52 53 48 33 38 16 29 41 33 6 13 6 6 4 13 13 46 37 25 7 42 38 27 38 49 40 42 38 31 25 11 14 10 7 3 9 15 31 17 25 40 57 72 80
51 50 44 30 31 30 35 44 35 11 10 9 6 10 23 9 20 4 45 21 16 21 27 23 32 32 37 49 28 9 31 22 10 11 6 4 3 13 8 32 32 29 53 72 83
49 40 29 25 28 30 40 37 14 9 11 12 17 38 24 6 8 7 24 23 12 10 17 10 14 17 16 30 46 17 19 14 11 7 7 15 11 9 12 16 15 35 63 79 87
39 28 15 21 29 38 32 19 9 9 12 19 32 30 34 18 10 12 5 8 10 7 15 13 11 7 12 22 11 12 28 8 11 10 9 18 11 18 11 14 19 21 53 78 88
32 18 10 16 27 30 22 10 12 9 10 27 24 36 9 19 6 10 10 7 7 7 8 19 17 13 14 19 17 27 24 8 14 9 8 11 14 12 25 36 48 41 38 57 75
26 13 9 21 26 18 12 9 11 6 14 24 29 8 8 15 8 10 12 11 10 8 6 15 6 5 8 5 17 12 16 8 11 7 6 8 9 18 14 20 15 27 24 54 75
28 14 12 28 25 19 9 6 6 6 12 12 7 9 9 18 17 18 7 8 14 18 19 9 11 3 6 8 3 21 16 6 4 10 7 5 7 10 9 13 12 14 27 58 77
18 7 18 30 18 7 4 10 11 27 32 6 6 8 10 11 19 11 11 5 8 8 23 3 5 4 9 1 13 7 15 6 12 2 8 6 10 8 10 14 15 17 22 42 71
9 5 24 28 9 4 3 8 23 13 27 8 7 11 8 26 9 8 10 9 17 11 9 3 6 8 4 6 1 7 13 10 8 8 1 5 8 3 12 15 14 14 9 25 67
6 9 18 24 6 8 11 10 8 11 15 9 8 6 9 9 8 8 6 3 16 8 6 10 4 8 6 7 9 11 7 10 9 7 10 10 7 5 11 14 18 13 7 13 51
5 6 9 10 3 5 9 10 12 23 9 19 11 12 10 7 3 10 15 10 18 13 17 14 7 7 9 9 9 8 7 9 10 7 10 10 6 7 11 13 13 16 8 19 48
9 3 5 6 9 5 2 5 15 16 8 15 9 17 17 9 11 5 4 12 7 18 8 5 5 5 4 10 12 8 9 8 8 8 11 10 11 3 7 4 1 4 4 25 46
6 6 5 10 24 9 8 6 11 19 6 8 12 22 17 6 8 14 16 10 7 8 5 3 1 5 6 7 13 5 9 13 7 7 3 5 17 9 8 8 5 6 10 29 46
9 6 3 7 8 6 5 7 14 16 14 13 24 24 11 13 31 39 29 15 14 8 3 1 4 5 4 8 10 8 18 16 8 7 16 16 25 6 3 7 13 19 22 32 46
Wind_Direction_850mb
323 322 321 321 324 318 304 302 296 298 306 309 305 276 276 287 288 287 278 275 263 228 203 192 197 197 199 204 189 192 188 206 224 191 217 249 232 160 171 140 144 178 162 180 163
322 328 334 327 327 320 311 305 305 298 291 290 303 304 288 279 289 280 293 266 249 223 211 192 201 194 198 210 197 180 211 211 207 252 214 296 214 186 123 137 87 135 146 155 160
340 332 325 322 320 315 309 307 307 305 301 301 292 288 304 289 295 273 208 291 223 200 212 210 205 196 209 194 201 197 213 214 241 289 285 277 306 225 129 169 176 151 152 159 167
332 326 329 322 313 314 315 314 309 305 300 304 294 290 285 288 251 183 169 114 314 220 201 208 207 203 197 206 198 200 218 238 242 269 341 328 328 245 161 188 178 166 164 166 174
327 326 322 321 318 318 315 312 309 307 302 299 294 288 281 257 242 194 220 289 134 197 200 205 213 208 209 192 178 215 197 226 246 257 287 284 277 295 238 158 172 164 167 174 178
328 325 322 320 318 316 313 311 308 303 298 295 290 283 274 258 257 253 244 262 228 223 219 213 216 211 215 224 199 195 220 235 235 245 252 225 234 199 187 157 165 169 170 178 183
326 325 324 322 323 318 313 309 305 297 294 292 290 279 269 253 256 250 238 244 242 228 229 227 219 204 216 219 218 220 197 231 244 219 233 203 264 189 155 174 170 179 179 181 184
327 326 326 324 325 321 316 312 304 300 298 289 285 276 264 262 271 265 254 255 231 223 233 249 225 224 223 233 180 192 200 227 238 184 213 167 240 222 201 178 175 181 182 184 188
324 324 324 324 327 323 321 315 314 312 298 285 270 257 270 271 252 267 248 250 238 231 234 235 217 217 200 206 195 191 206 216 237 188 182 189 221 217 214 187 187 187 187 189 192
328 330 328 328 327 330 325 324 333 329 328 333 239 260 261 253 253 284 304 269 250 241 242 209 200 200 208 200 204 188 194 191 204 196 190 195 205 227 217 187 195 195 195 193 194
329 327 330 328 329 334 335 341 357 342 314 271 263 251 262 238 264 281 285 306 229 238 220 196 204 206 209 205 199 205 171 181 189 200 173 220 211 223 206 192 190 196 197 196 199
327 327 331 328 333 332 333 346 343 319 294 298 279 271 266 264 278 269 260 241 193 223 214 191 212 215 214 198 205 198 206 194 157 156 183 216 229 220 225 201 200 199 200 199 204
330 329 329 329 332 330 344 354 329 335 281 301 292 272 313 279 227 255 203 199 235 220 212 225 227 205 201 201 199 213 204 180 152 136 134 150 256 219 241 219 211 218 215 209 205
327 329 331 331 337 333 358 344 338 334 319 281 293 327 332 313 261 251 207 186 275 212 218 222 249 192 187 215 198 200 194 173 148 118 202 194 245 229 215 215 220 215 217 212 207
324 327 329 340 333 339 336 331 329 341 333 298 300 323 316 204 281 267 188 146 236 219 189 202 210 212 203 204 185 213 185 175 138 139 53 261 122 274 191 218 221 223 218 219 215
324 329 331 339 335 331 324 320 325 48 263 305 324 326 325 277 262 93 159 159 149 298 224 178 171 186 204 178 188 186 110 67 52 81 218 210 162 254 206 197 215 226 222 220 217
337 341 348 344 335 332 330 332 33 111 319 339 322 325 320 323 306 194 292 134 170 213 164 169 162 180 167 181 126 192 141 154 191 194 214 178 181 239 231 226 205 217 223 214 210
347 352 3 328 327 332 333 47 67 259 281 316 318 312 13 0 311 320 166 155 181 184 327 166 196 177 167 198 180 179 167 165 190 181 168 116 224 249 225 232 239 240 261 207 199
352 356 353 341 350 344 342 43 207 264 320 328 322 319 319 354 312 318 185 186 137 170 229 192 188 142 146 127 145 172 196 141 97 25 64 209 273 304 232 250 237 238 211 195 195
341 343 14 340 332 331 65 263 242 286 304 321 307 356 310 333 332 342 9 8 163 170 148 277 107 345 129 114 75 179 134 140 335 127 190 286 292 224 311 302 301 251 211 200 200
334 359 1 346 342 12 116 242 286 299 309 285 271 288 281 315 327 307 352 17 21 175 148 264 56 355 98 153 166 119 182 123 120 17 166 147 253 220 264 277 291 249 224 200 199
339 39 12 4 41 6 326 280 298 297 327 290 232 243 278 326 307 310 348 335 339 342 155 75 96 112 133 189 321 278 164 138 143 220 161 125 279 296 271 269 265 253 196 202 200
40 339 17 24 49 345 294 288 278 316 320 327 289 290 329 303 336 325 315 306 7 342 163 171 41 88 86 347 88 260 145 117 108 107 201 143 243 317 4 10 4 99 147 165 189
26 26 14 23 41 265 321 297 320 317 291 337 280 324 344 321 303 307 327 347 338 355 28 143 139 165 174 188 137 169 121 143 133 134 163 220 177 352 3 15 11 31 56 168 172
33 22 47 306 316 302 241 287 311 343 326 332 324 2 336 322 327 321 346 305 351 5 44 87 150 107 17 170 152 145 144 153 145 155 163 267 194 127 11 206 51 28 53 163 161
69 29 345 281 299 356 343 290 323 330 276 308 330 325 311 271 315 314 340 10 303 1 50 327 293 127 66 95 81 104 169 163 154 174 164 319 292 161 99 116 152 170 149 165 164
42 5 345 334 330 39 259 313 293 326 296 277 313 304 301 333 309 291 280 262 262 297 336 54 120 92 186 95 63 338 210 180 160 182 166 208 234 82 75 220 214 192 185 182 180